TimeEDT,TemperatureF,Dew PointF,Humidity,Sea Level PressureIn,VisibilityMPH,Wind Direction,Wind SpeedMPH,Gust SpeedMPH,PrecipitationIn,Events,Conditions,WindDirDegrees,DateUTC
12:54 AM,55.9,48.0,75,30.05,10.0,Calm,Calm,-,N/A,,Clear,0,2013-10-08 04:54:00
1:54 AM,53.1,46.9,80,30.08,10.0,Calm,Calm,-,N/A,,Clear,0,2013-10-08 05:54:00
2:54 AM,54.0,46.0,75,30.09,10.0,WNW,3.5,-,N/A,,Clear,300,2013-10-08 06:54:00
3:54 AM,50.0,46.0,86,30.11,10.0,Calm,Calm,-,N/A,,Clear,0,2013-10-08 07:54:00
5:54 AM,52.0,45.0,77,30.15,10.0,NW,4.6,-,N/A,,Clear,310,2013-10-08 09:54:00
6:54 AM,52.0,45.0,77,30.17,10.0,NNW,3.5,-,N/A,,Clear,330,2013-10-08 10:54:00
7:54 AM,52.0,45.0,77,30.21,10.0,NNW,4.6,-,N/A,,Clear,340,2013-10-08 11:54:00
8:54 AM,54.0,45.0,72,30.24,10.0,NNW,5.8,-,N/A,,Clear,330,2013-10-08 12:54:00
9:54 AM,57.0,46.9,69,30.25,10.0,North,8.1,-,N/A,,Clear,360,2013-10-08 13:54:00
10:54 AM,60.1,46.0,60,30.25,10.0,North,13.8,19.6,N/A,,Clear,360,2013-10-08 14:54:00
11:54 AM,62.1,45.0,53,30.25,10.0,North,11.5,-,N/A,,Clear,360,2013-10-08 15:54:00
12:54 PM,64.0,44.1,48,30.24,10.0,North,11.5,-,N/A,,Clear,350,2013-10-08 16:54:00
1:54 PM,64.0,45.0,50,30.23,10.0,NNE,8.1,-,N/A,,Clear,20,2013-10-08 17:54:00
2:54 PM,66.0,44.1,45,30.23,10.0,NNW,5.8,-,N/A,,Clear,340,2013-10-08 18:54:00
3:54 PM,66.0,45.0,47,30.23,10.0,NNE,8.1,-,N/A,,Clear,20,2013-10-08 19:54:00
4:54 PM,64.9,45.0,48,30.23,10.0,North,5.8,-,N/A,,Clear,360,2013-10-08 20:54:00
5:54 PM,62.1,48.0,60,30.25,10.0,Calm,Calm,-,N/A,,Clear,0,2013-10-08 21:54:00
6:54 PM,57.0,50.0,77,30.26,10.0,Calm,Calm,-,N/A,,Clear,0,2013-10-08 22:54:00
7:54 PM,54.0,50.0,86,30.27,10.0,Calm,Calm,-,N/A,,Clear,0,2013-10-08 23:54:00
8:54 PM,53.1,50.0,89,30.28,10.0,Calm,Calm,-,N/A,,Clear,0,2013-10-09 00:54:00
9:54 PM,52.0,48.9,89,30.30,10.0,Calm,Calm,-,N/A,,Clear,0,2013-10-09 01:54:00
10:54 PM,52.0,50.0,93,30.30,10.0,Calm,Calm,-,N/A,,Clear,0,2013-10-09 02:54:00
11:54 PM,52.0,48.0,86,30.30,10.0,Calm,Calm,-,N/A,,Clear,0,2013-10-09 03:54:00